Preview of NWS' New Version of Forecast
This preview is not operational and should not be used for support decisions.

Regional Weather Roundup (RWR)

Issued by National Weather Service (NWS)

                            
000
ASPQ40 PGUM 230410
RWRPQ 
WEATHER ROUNDUP FOR THE MARIANAS AND MICRONESIA
NATIONAL WEATHER SERVICE TIYAN GU
200 PM CHST FRI AUG 23 2019

GUZ001>004-230500-
MARIANA ISLANDS-
  
CITY           SKY/WX    TMP DP  RH WIND       PRES   REMARKS
GUAM AIRPORT   LGT RAIN  90  75  62 NE17      29.80F HX 100           
ANDERSEN AFB   PTSUNNY   86  77  74 E15G22    29.81F HX  97           
ROTA AIRPORT   MOSUNNY   86  73  66 E15       29.79F HX  93           
TINIAN AP      MOSUNNY   88  77  70 E18       29.78F HX 100           
SAIPAN AP      MOSUNNY   90  79  70 E15       29.80F HX 105           

$$

PMZ161-230500-
REPUBLIC OF PALAU-
  
CITY           SKY/WX    TMP DP  RH WIND       PRES   REMARKS
KOROR AP       CLOUDY    86  77  74 W9        29.84F HX  97           
KOROR WSO      NOT AVBL                                               

$$

PMZ171>174-230500-
FEDERATED STATES OF MICRONESIA-
  
CITY           SKY/WX    TMP DP  RH WIND       PRES   REMARKS
YAP AIRPORT    PTSUNNY   86  79  79 NW12      29.82F HX  99           
CHUUK AP       CLOUDY    81  79  94 VRB6      29.78S                  
POHNPEI AP     LGT RAIN  82  79  89 N3        29.80S HX  93           
POHNPEI WSO    LGT RAIN  86  79  79 W3        29.84S HX  99           
KOSRAE AP      CLOUDY    86  79  79 W6        29.79F HX  99           

$$

PMZ181-230500-
REPUBLIC OF THE MARSHALL ISLANDS-
  
CITY           SKY/WX    TMP DP  RH WIND       PRES   REMARKS
KWAJALEIN AP   SUNNY     86  75  70 E6        29.80S HX  95           
MAJURO AP      PTSUNNY   86  77  74 E9        29.81S HX  97           
MAJURO WSO     PTSUNNY   86  75  70 SE7       29.79S HX  95           

$$